Wind_Speed
29 26 24 20 18 16 16 21 26 26 24 21 18 19 23 25 25 26 24 23 21 19 19 20 19 17 16 16 15 13 13 12 11 11 11 11 12 14 17 18 18 17 16 15 16 16 17 18 20
31 30 27 24 20 18 20 22 24 24 23 21 20 22 25 25 25 26 24 23 21 19 19 19 18 17 16 15 14 13 13 13 12 12 11 11 11 13 16 19 19 18 17 17 18 18 19 19 20
34 33 30 28 24 22 22 22 22 21 20 20 21 24 26 25 23 24 23 23 22 20 20 19 18 18 17 15 13 12 13 13 12 12 12 13 12 12 15 18 19 20 20 20 20 21 21 22 23
33 34 34 31 26 25 25 23 20 20 19 19 22 25 27 25 23 23 22 22 22 21 20 19 19 18 17 15 13 12 13 13 12 12 13 14 15 14 14 15 18 21 23 23 23 24 25 26 27
30 33 34 33 30 28 28 27 23 20 21 21 23 25 25 25 22 21 20 20 21 20 20 20 19 19 18 16 13 13 14 13 13 13 14 15 16 17 17 17 18 19 21 23 24 25 26 27 28
32 32 33 32 31 31 31 30 26 21 22 23 24 24 25 25 23 22 20 19 21 20 19 20 20 20 20 17 15 14 14 13 13 13 14 15 16 17 19 20 21 22 23 24 25 26 26 27 28
33 33 32 31 32 33 33 31 27 23 23 23 22 23 24 24 24 23 22 20 20 19 18 19 21 21 20 19 16 16 15 13 12 12 12 12 13 14 16 18 20 22 24 26 27 28 28 29 29
33 33 32 30 31 31 34 34 30 26 25 24 22 23 25 25 25 24 22 21 20 19 18 20 22 22 21 20 18 18 16 14 13 13 13 12 13 13 14 15 17 19 21 23 24 26 28 30 30
33 31 28 28 29 29 34 36 35 31 26 24 22 23 26 28 29 27 24 22 20 19 19 20 24 24 23 23 20 19 18 16 16 16 15 15 17 17 17 18 18 19 20 21 22 23 25 28 30
33 29 25 26 28 30 35 38 37 34 28 24 23 24 28 29 29 28 26 24 23 21 21 21 25 26 25 24 22 22 20 19 18 19 19 20 22 23 23 23 23 23 23 24 24 25 26 28 30
33 29 28 27 29 33 37 39 40 36 30 25 25 26 28 28 26 27 27 25 24 22 22 22 25 27 27 26 24 23 22 21 21 22 23 25 26 28 29 29 29 29 28 28 29 29 30 31 33
36 33 32 31 32 34 37 40 42 39 32 29 27 27 29 28 26 26 27 26 25 24 23 23 24 27 28 27 26 24 24 24 23 24 25 27 29 30 32 32 32 32 32 32 33 34 34 35 36
40 38 38 36 36 36 38 40 42 41 35 33 31 29 30 30 26 25 27 26 26 25 25 24 24 26 27 27 28 27 27 27 26 26 27 29 30 32 33 34 33 33 32 32 34 35 36 36 35
43 42 42 42 40 39 40 41 41 38 37 37 34 32 32 31 26 25 26 25 25 25 26 26 26 26 25 25 26 27 28 29 28 28 29 30 30 31 30 30 30 30 31 32 33 35 35 35 34
44 44 44 44 44 43 43 43 41 38 37 38 38 36 34 31 27 25 26 25 25 25 26 27 28 27 25 24 25 26 28 28 28 29 29 29 29 28 27 26 28 29 30 31 33 35 36 35 35
45 46 45 45 46 46 47 43 41 41 38 39 40 39 37 32 27 26 27 26 25 25 26 27 28 27 25 24 24 25 26 27 27 28 28 28 27 26 26 27 29 31 32 34 36 37 37 36 36
47 47 47 46 47 47 48 45 43 43 39 39 40 40 39 34 28 27 28 27 26 25 26 27 26 25 24 23 23 24 24 25 26 27 29 28 27 26 27 30 32 34 35 37 40 40 39 37 37
46 46 47 48 47 48 49 48 47 46 43 40 40 41 40 36 30 28 28 27 27 27 27 27 26 24 23 23 23 23 24 25 27 29 30 28 27 28 31 33 35 37 38 40 42 42 40 39 38
49 49 49 50 50 51 52 51 50 48 46 42 41 41 40 36 32 29 27 27 27 28 28 27 25 24 25 24 23 23 25 27 29 30 30 29 29 31 34 36 38 39 41 42 43 42 42 41 39
51 51 50 51 51 53 54 54 52 51 48 45 43 41 39 36 32 29 27 27 28 28 28 28 26 26 26 25 25 26 27 28 30 29 29 29 31 34 37 39 41 42 43 43 42 40 40 41 42
52 52 50 49 49 53 54 55 53 52 50 47 45 42 39 35 33 30 28 27 28 29 29 29 27 27 27 27 28 28 28 28 28 27 28 31 34 37 39 41 42 43 42 40 39 40 41 43 46
51 49 49 48 50 51 53 56 54 53 52 49 46 43 38 34 32 30 29 28 28 29 30 29 28 28 29 30 30 30 29 29 28 29 31 34 37 39 41 41 42 41 39 39 41 43 45 47 50
48 46 48 49 51 52 52 56 55 54 54 51 45 41 37 34 32 30 30 29 28 29 29 29 28 29 30 31 31 31 30 30 31 33 35 37 39 40 41 41 40 40 41 42 44 47 49 52 55
46 46 48 50 51 56 51 55 56 54 52 49 44 41 37 34 31 30 29 29 29 29 29 29 29 30 31 32 32 31 31 32 34 36 38 39 40 40 40 40 40 42 44 45 47 50 54 57 60
44 45 47 49 53 55 50 54 55 49 47 46 43 39 35 32 30 29 29 29 30 30 30 30 30 31 32 32 32 32 33 35 37 38 38 39 40 40 40 40 42 44 46 48 50 54 58 61 63
39 42 45 46 49 49 49 53 50 43 41 42 40 37 34 32 30 29 30 30 31 31 30 30 30 31 32 32 33 34 35 37 38 38 39 40 40 40 41 42 44 46 48 51 54 58 61 63 65
35 40 40 41 42 44 48 49 46 39 39 39 37 35 32 29 28 29 30 30 30 30 30 30 30 31 31 32 33 35 37 38 38 39 40 39 40 41 42 44 47 49 51 54 58 62 65 67 68
33 34 39 41 40 41 42 44 40 37 37 35 32 30 28 26 27 28 28 29 29 29 30 30 30 30 31 32 34 36 37 37 38 39 39 40 41 43 45 47 50 52 55 58 62 66 68 69 69
31 36 39 40 40 37 36 37 33 31 30 27 26 25 24 23 24 25 27 27 28 29 28 29 30 30 31 32 34 36 37 38 38 38 39 41 43 45 48 50 53 55 59 63 66 69 70 70 69
26 31 37 42 38 32 26 26 28 29 27 26 25 24 22 22 23 24 25 26 26 26 27 28 29 30 31 33 34 36 37 37 38 39 41 44 46 48 50 53 56 59 63 67 70 70 70 69 70
Wind_Direction
243 243 243 245 248 245 240 243 248 251 255 261 264 256 249 246 247 250 252 257 264 270 276 281 284 286 289 292 295 300 305 301 296 293 290 288 278 262 255 250 249 250 251 251 250 250 251 252 254
243 243 244 244 245 245 241 247 252 255 254 254 255 253 253 251 251 252 253 256 261 265 271 277 278 278 280 283 289 297 300 296 290 289 285 283 278 263 253 248 246 247 249 250 251 253 255 257 259
241 242 244 243 244 246 248 251 254 257 252 249 248 249 253 254 254 255 256 259 262 266 270 273 271 269 271 275 282 289 292 291 289 286 280 276 277 272 257 251 249 249 250 252 255 259 262 265 267
242 242 242 243 244 246 249 252 255 252 244 240 242 246 251 254 255 256 257 261 265 268 271 271 265 261 264 268 274 279 284 288 289 286 278 272 270 273 273 265 259 257 256 258 261 265 268 269 270
246 243 242 242 243 245 248 248 248 248 241 237 239 244 249 253 254 256 257 260 264 268 271 270 260 255 258 262 265 270 276 283 288 287 282 275 270 269 272 274 273 271 270 270 271 273 274 274 274
248 246 243 239 240 242 245 246 247 248 247 244 241 243 247 251 252 253 255 257 262 267 270 266 257 251 252 256 257 260 268 277 285 287 287 283 280 277 276 276 276 276 277 277 276 275 276 277 278
249 247 245 239 235 239 242 244 248 250 249 249 247 245 247 249 252 254 256 259 264 269 268 261 252 247 247 250 250 253 262 269 274 280 286 291 290 287 284 282 280 279 277 276 275 275 275 276 276
249 249 245 240 235 238 241 240 240 242 244 246 244 242 244 246 249 252 254 258 263 268 266 254 245 243 243 244 246 249 256 260 263 271 283 291 296 300 302 299 295 290 285 282 280 278 276 274 273
251 251 248 242 238 238 243 241 238 235 237 241 242 242 242 243 245 248 252 255 260 267 269 255 242 240 240 241 243 246 252 254 257 267 278 287 291 296 301 302 299 296 293 289 286 284 281 279 277
252 253 253 249 240 236 243 243 240 237 235 238 240 241 245 245 248 252 256 257 261 269 273 263 247 242 241 242 243 244 249 253 257 266 276 284 288 292 294 296 297 297 295 293 290 287 285 283 282
253 253 255 252 243 237 240 245 243 239 236 236 238 241 248 250 252 254 258 260 261 264 268 263 252 247 246 247 246 247 251 256 260 267 276 282 287 292 295 296 297 297 295 293 292 290 288 287 286
253 253 255 253 247 241 238 242 245 242 237 237 238 241 248 250 249 250 252 254 257 262 263 260 254 250 251 252 251 251 254 256 261 268 275 281 288 293 295 294 293 293 294 294 293 293 293 293 291
252 253 254 253 250 245 241 240 243 242 237 237 238 241 248 253 252 251 251 251 250 257 261 259 256 253 252 253 253 252 256 262 268 275 281 287 293 295 294 293 292 292 293 293 293 294 295 295 293
252 253 253 253 253 250 247 243 243 241 237 236 237 239 245 252 254 252 252 253 249 252 256 256 256 257 255 253 251 250 254 262 270 277 284 289 293 294 294 294 293 293 293 293 295 296 296 295 293
253 253 252 253 253 252 250 245 245 242 237 236 237 238 242 249 253 252 252 251 247 247 251 254 256 258 257 253 251 251 254 261 269 277 284 290 295 296 296 297 297 296 295 296 297 298 296 293 291
250 250 250 250 250 249 247 244 244 243 237 235 236 237 241 246 249 250 250 249 246 245 248 252 256 258 255 252 254 256 259 265 272 279 288 293 294 295 297 300 301 301 300 301 301 300 297 294 291
250 251 251 250 250 250 247 243 241 241 238 236 237 237 239 242 245 248 247 246 245 244 247 253 257 255 252 253 257 260 263 269 277 285 292 294 294 295 297 299 300 300 300 301 302 300 297 294 291
255 254 252 251 250 250 248 244 241 239 238 236 237 237 237 239 242 246 245 244 244 245 249 255 257 251 246 250 256 261 267 275 282 289 294 295 294 294 295 297 297 297 298 299 299 297 294 292 290
252 250 249 249 248 246 245 241 238 236 235 235 236 237 237 236 238 241 243 242 243 245 250 256 257 246 243 248 255 263 271 278 285 290 292 291 291 292 295 296 296 296 297 297 297 296 294 292 291
253 252 251 248 246 244 242 239 236 234 231 231 234 235 235 233 233 237 240 242 244 245 249 254 255 248 245 248 256 265 272 280 287 290 290 291 292 294 295 296 297 297 297 297 297 296 295 293 292
253 252 250 247 243 243 242 239 235 232 230 229 232 233 233 230 231 234 237 241 243 245 248 253 255 251 248 251 258 266 275 283 289 291 293 294 295 296 296 297 298 299 299 299 298 296 295 295 295
253 251 247 243 240 239 239 238 232 230 227 227 231 234 233 229 229 233 235 238 241 243 247 251 253 251 250 253 259 266 274 282 288 292 294 295 294 294 295 297 298 299 299 299 298 298 298 298 299
250 246 244 240 238 236 234 237 230 228 225 225 230 235 233 228 228 231 234 236 238 241 245 249 252 252 252 254 259 266 273 280 286 290 292 293 293 294 296 298 298 298 299 300 300 300 301 301 300
244 240 238 236 235 234 230 234 230 223 224 223 228 234 233 228 227 230 233 236 237 239 244 248 250 252 253 255 259 265 271 278 284 288 291 292 294 295 296 297 297 297 298 300 300 301 301 301 301
241 237 234 233 233 234 227 230 230 220 220 221 227 231 229 225 225 230 234 236 236 238 242 246 248 250 252 255 259 264 271 277 283 287 289 291 293 294 295 295 296 297 297 298 299 300 301 302 302
240 236 233 234 235 234 228 228 227 216 215 219 222 224 221 218 222 229 232 235 236 238 242 246 249 251 254 257 261 266 272 279 284 287 289 291 293 293 293 294 294 295 296 298 299 301 302 304 304
234 232 228 231 231 231 227 226 223 215 212 215 220 221 215 213 221 228 232 234 236 238 242 246 250 253 256 260 264 269 275 281 285 288 290 292 293 293 293 293 294 295 297 299 301 303 304 305 305
231 226 222 222 223 224 224 221 215 209 210 214 217 211 207 213 221 227 230 232 234 237 241 246 250 254 258 262 267 273 279 284 287 289 291 292 293 293 293 294 295 297 299 301 302 304 305 306 305
227 219 215 214 214 217 221 217 206 205 205 207 201 198 204 211 218 223 226 228 232 236 241 247 251 256 260 265 271 277 282 286 288 289 291 293 293 293 294 295 297 299 301 302 304 305 306 305 304
219 214 211 209 206 206 213 210 198 195 192 190 191 196 202 209 216 222 224 227 231 237 242 248 253 258 263 269 275 280 284 286 288 290 292 293 294 294 295 296 298 300 302 304 305 306 306 306 305
Height
5829 5830 5832 5834 5836 5837 5836 5836 5836 5838 5841 5844 5845 5844 5844 5845 5847 5850 5850 5850 5851 5852 5852 5853 5852 5852 5851 5851 5851 5850 5849 5848 5847 5846 5846 5846 5845 5845 5844 5844 5844 5844 5844 5843 5843 5843 5842 5841 5841
5824 5826 5828 5830 5831 5832 5832 5832 5833 5835 5838 5839 5840 5839 5839 5842 5843 5845 5846 5847 5848 5848 5849 5849 5849 5848 5848 5849 5849 5848 5848 5847 5845 5844 5844 5843 5843 5842 5841 5840 5840 5840 5840 5839 5839 5839 5838 5837 5837
5818 5821 5823 5825 5826 5828 5828 5829 5830 5831 5833 5834 5835 5835 5835 5838 5840 5841 5842 5843 5844 5844 5845 5846 5845 5845 5845 5846 5846 5846 5845 5844 5843 5842 5842 5842 5841 5839 5838 5838 5837 5837 5837 5836 5836 5835 5835 5834 5834
5813 5815 5818 5821 5822 5823 5823 5824 5826 5827 5828 5829 5830 5830 5831 5834 5836 5838 5839 5839 5840 5840 5841 5842 5841 5841 5842 5843 5844 5843 5843 5842 5841 5840 5839 5839 5839 5838 5836 5836 5835 5834 5834 5833 5833 5832 5832 5831 5830
5806 5808 5812 5815 5817 5817 5818 5819 5821 5822 5823 5824 5825 5826 5827 5829 5831 5833 5835 5836 5836 5837 5837 5838 5838 5838 5839 5840 5841 5841 5840 5839 5838 5838 5837 5837 5836 5835 5835 5834 5833 5832 5831 5830 5829 5829 5828 5827 5826
5800 5802 5805 5809 5811 5811 5812 5813 5816 5818 5818 5820 5821 5822 5823 5825 5827 5829 5830 5832 5832 5833 5834 5834 5834 5835 5836 5837 5838 5838 5837 5836 5836 5835 5835 5835 5834 5833 5832 5831 5830 5829 5828 5827 5825 5824 5823 5822 5821
5793 5795 5798 5802 5804 5805 5807 5809 5811 5813 5814 5815 5817 5818 5819 5821 5822 5824 5827 5828 5829 5830 5830 5830 5831 5831 5832 5834 5835 5834 5834 5833 5833 5833 5833 5832 5831 5830 5829 5827 5826 5824 5823 5822 5821 5819 5818 5817 5816
5786 5788 5791 5795 5798 5800 5800 5803 5806 5808 5809 5810 5812 5813 5814 5816 5818 5819 5822 5824 5825 5826 5826 5827 5827 5827 5829 5830 5831 5831 5831 5831 5831 5831 5831 5830 5829 5827 5826 5824 5822 5820 5819 5817 5815 5814 5813 5811 5810
5779 5782 5785 5789 5792 5795 5793 5795 5799 5802 5804 5805 5807 5808 5809 5811 5812 5814 5817 5820 5821 5822 5822 5823 5823 5824 5825 5826 5827 5827 5827 5827 5828 5828 5827 5826 5825 5824 5822 5820 5818 5816 5814 5813 5810 5808 5807 5805 5803
5772 5776 5780 5784 5786 5788 5786 5787 5791 5796 5800 5800 5801 5802 5802 5805 5808 5811 5813 5815 5817 5818 5818 5818 5819 5820 5821 5821 5823 5823 5824 5824 5824 5824 5823 5822 5821 5819 5818 5815 5813 5812 5810 5808 5806 5803 5801 5799 5797
5766 5769 5773 5776 5778 5780 5780 5780 5783 5789 5794 5795 5796 5796 5796 5799 5803 5806 5808 5809 5812 5814 5815 5814 5814 5815 5816 5817 5818 5819 5820 5821 5820 5820 5819 5818 5816 5815 5813 5810 5809 5807 5805 5803 5801 5798 5796 5793 5791
5760 5762 5764 5768 5769 5771 5773 5774 5775 5781 5788 5790 5790 5791 5790 5793 5797 5800 5802 5804 5805 5808 5809 5810 5809 5810 5811 5812 5813 5815 5816 5817 5816 5815 5815 5814 5812 5810 5808 5805 5803 5801 5799 5797 5794 5791 5789 5786 5783
5752 5755 5756 5758 5760 5763 5765 5766 5767 5772 5779 5782 5784 5786 5786 5787 5791 5794 5796 5799 5801 5802 5803 5804 5805 5806 5807 5808 5809 5811 5812 5812 5811 5810 5810 5809 5807 5805 5802 5799 5797 5795 5793 5791 5788 5785 5782 5779 5775
5743 5745 5747 5749 5752 5754 5756 5759 5760 5765 5770 5774 5777 5780 5781 5781 5785 5788 5790 5793 5796 5797 5797 5798 5800 5801 5803 5804 5805 5807 5807 5807 5806 5806 5805 5804 5801 5798 5795 5793 5791 5788 5786 5784 5781 5778 5775 5772 5768
5733 5736 5738 5740 5743 5745 5747 5751 5754 5759 5763 5766 5770 5773 5775 5777 5780 5782 5785 5787 5790 5791 5792 5792 5793 5795 5797 5799 5800 5801 5802 5802 5802 5801 5800 5798 5795 5791 5789 5787 5784 5782 5780 5777 5774 5771 5767 5764 5761
5721 5724 5728 5731 5732 5734 5737 5743 5748 5751 5755 5758 5762 5765 5768 5772 5774 5776 5778 5781 5784 5786 5787 5787 5788 5789 5791 5793 5794 5795 5796 5796 5796 5795 5794 5791 5787 5785 5783 5781 5778 5776 5773 5770 5767 5763 5760 5756 5753
5709 5713 5717 5721 5722 5723 5726 5734 5740 5742 5746 5751 5754 5757 5760 5765 5769 5770 5772 5775 5778 5780 5781 5782 5783 5784 5786 5788 5789 5789 5790 5790 5790 5789 5786 5783 5780 5778 5776 5774 5771 5769 5766 5762 5759 5755 5752 5749 5746
5700 5703 5706 5708 5710 5711 5716 5724 5729 5732 5737 5742 5745 5749 5753 5758 5762 5764 5766 5769 5771 5773 5775 5776 5778 5779 5781 5782 5783 5784 5784 5784 5783 5781 5779 5776 5774 5771 5769 5767 5764 5761 5758 5754 5750 5747 5743 5741 5738
5685 5688 5692 5695 5695 5697 5703 5710 5716 5721 5727 5733 5736 5740 5745 5751 5755 5757 5760 5762 5765 5766 5768 5770 5772 5774 5775 5776 5777 5778 5778 5777 5776 5774 5771 5769 5767 5764 5762 5759 5756 5753 5749 5745 5741 5737 5734 5731 5728
5671 5674 5678 5681 5682 5684 5690 5697 5704 5710 5717 5723 5727 5731 5736 5743 5747 5751 5753 5756 5758 5760 5762 5763 5765 5767 5768 5770 5771 5772 5772 5771 5769 5766 5764 5762 5759 5757 5754 5751 5747 5743 5739 5736 5732 5728 5724 5721 5718
5657 5661 5665 5667 5669 5671 5677 5684 5693 5700 5706 5713 5717 5722 5728 5735 5740 5743 5747 5750 5752 5754 5755 5757 5758 5760 5762 5763 5764 5765 5765 5763 5761 5759 5757 5754 5752 5749 5745 5742 5738 5734 5730 5726 5722 5719 5715 5711 5706
5644 5648 5650 5653 5655 5660 5664 5671 5682 5688 5696 5704 5709 5714 5721 5728 5733 5737 5740 5743 5745 5747 5749 5751 5752 5754 5755 5757 5757 5758 5757 5756 5754 5752 5749 5746 5743 5740 5736 5732 5728 5724 5720 5716 5713 5709 5705 5700 5695
5631 5634 5636 5639 5641 5646 5653 5658 5671 5677 5686 5696 5703 5707 5714 5721 5726 5729 5733 5736 5739 5741 5743 5744 5746 5747 5748 5749 5750 5750 5750 5748 5746 5744 5741 5738 5735 5731 5727 5723 5719 5715 5711 5707 5703 5698 5694 5689 5683
5616 5620 5623 5625 5627 5633 5645 5645 5655 5668 5679 5689 5695 5700 5706 5713 5718 5722 5726 5729 5732 5734 5737 5738 5740 5741 5741 5742 5743 5742 5742 5740 5738 5736 5733 5729 5725 5722 5718 5714 5710 5706 5702 5698 5693 5688 5682 5677 5670
5604 5609 5611 5613 5615 5622 5635 5633 5644 5663 5672 5680 5687 5693 5699 5705 5711 5715 5719 5722 5725 5727 5730 5732 5733 5734 5735 5735 5735 5735 5734 5732 5730 5727 5724 5720 5716 5712 5709 5705 5701 5697 5693 5688 5683 5677 5671 5664 5656
5594 5598 5603 5607 5610 5617 5623 5625 5638 5655 5663 5670 5677 5684 5691 5697 5703 5708 5712 5715 5718 5720 5722 5724 5726 5727 5727 5728 5727 5727 5726 5724 5721 5718 5715 5712 5708 5704 5700 5696 5692 5688 5683 5678 5672 5665 5658 5650 5641
5583 5586 5596 5600 5603 5608 5614 5621 5633 5646 5654 5663 5671 5678 5685 5691 5696 5701 5705 5709 5711 5713 5715 5717 5718 5719 5720 5720 5719 5718 5717 5715 5712 5709 5705 5702 5698 5695 5691 5687 5682 5677 5672 5666 5660 5652 5644 5635 5625
5576 5581 5586 5590 5596 5602 5608 5616 5627 5640 5650 5659 5667 5673 5680 5685 5689 5694 5698 5702 5704 5706 5708 5710 5711 5712 5712 5712 5711 5709 5708 5706 5703 5700 5696 5693 5689 5686 5682 5677 5672 5666 5660 5654 5646 5638 5629 5619 5609
5569 5574 5579 5586 5592 5599 5605 5615 5627 5637 5646 5655 5663 5668 5674 5679 5684 5688 5691 5694 5697 5699 5701 5703 5704 5704 5704 5704 5703 5701 5699 5697 5694 5691 5687 5684 5680 5676 5671 5666 5661 5654 5648 5640 5632 5623 5614 5604 5594
5563 5569 5576 5582 5589 5596 5602 5614 5624 5633 5642 5650 5658 5664 5669 5674 5678 5682 5685 5688 5691 5693 5695 5696 5697 5697 5696 5696 5695 5693 5691 5688 5685 5682 5678 5674 5670 5666 5661 5655 5649 5642 5635 5626 5617 5608 5597 5587 5578